Location: Newark
(48.5667°N, 7.8167°E)
Time: 04:31:27
(UTC+00:00)

JY1SAT - Pass Details

Date: 31 July 2021
Orbit: 568 x 591 km, 97.7° (Epoch: 19 September)

Event Time Altitude Azimuth Distance (km) Brightness Sun altitude
Exits shadow 21:22:35 25° 190° (S) 1,189 ? -17.1°
Maximum altitude 21:24:47 57° 260° (W) 702 ? -17.3°
Drops below altitude 10° 21:28:55 10° 339° (NNW) 1,931 ? -17.7°
Sets 21:31:08 0° 344° (NNW) 2,839 ? -17.9°
